EDT,Max TemperatureF,Mean TemperatureF,Min TemperatureF,Max Dew PointF,MeanDew PointF,Min DewpointF,Max Humidity, Mean Humidity, Min Humidity, Max Sea Level PressureIn, Mean Sea Level PressureIn, Min Sea Level PressureIn, Max VisibilityMiles, Mean VisibilityMiles, Min VisibilityMiles, Max Wind SpeedMPH, Mean Wind SpeedMPH, Max Gust SpeedMPH,PrecipitationIn, CloudCover, Events, WindDirDegrees
2013-8-1,82,74,66,73,70,66,100,95,70,30.05,29.93,29.85,10,7,1,16,3,30,0.79,6,Rain-Thunderstorm,175
2013-8-2,86,75,64,70,67,63,100,80,48,30.01,29.97,29.90,10,10,1,10,3,,0.00,0,,196
2013-8-3,82,73,64,73,67,64,100,87,61,30.01,29.98,29.95,10,10,7,7,2,,0.00,3,Rain,248
2013-8-4,80,70,60,68,62,59,100,78,51,30.08,30.00,29.96,10,8,0,10,3,18,0.00,1,Fog,314
2013-8-5,78,66,55,68,60,55,100,79,50,30.14,30.09,30.05,10,10,10,7,1,,0.00,3,,29
2013-8-6,78,71,64,70,68,64,100,95,74,30.09,30.06,30.02,10,9,4,8,2,,0.06,7,Rain,64
2013-8-7,84,76,68,73,72,68,100,90,70,30.09,30.07,30.03,10,8,4,15,4,21,0.00,6,,161
2013-8-8,86,78,69,77,74,70,100,92,70,30.07,30.04,30.01,10,9,5,13,4,18,0.01,3,Rain,166
2013-8-9,91,81,71,79,75,72,100,85,59,30.01,29.96,29.91,10,9,4,13,5,23,0.00,3,Rain,176
2013-8-10,80,74,69,77,72,70,100,93,70,30.13,30.07,29.99,10,8,1,8,2,,0.82,5,Rain-Thunderstorm,27
2013-8-11,80,74,68,75,71,68,100,91,69,30.15,30.10,30.04,10,8,0,6,2,,0.22,6,Fog-Rain,130
2013-8-12,87,78,68,77,72,68,100,84,58,30.05,30.01,29.95,10,7,0,7,1,,0.00,3,Fog,41
2013-8-13,86,78,71,77,72,70,100,90,58,29.94,29.84,29.78,10,8,4,8,3,,0.07,3,Rain,197
2013-8-14,73,66,59,72,56,50,100,69,50,30.14,30.01,29.86,10,10,10,13,6,20,0.00,1,,326
2013-8-15,75,63,51,63,55,52,100,78,47,30.22,30.17,30.13,10,10,10,8,2,,0.00,1,,346
2013-8-16,82,66,51,68,61,52,100,84,58,30.24,30.18,30.16,10,9,0,6,1,,0.00,1,Fog,51
2013-8-17,80,70,60,72,67,61,100,86,61,30.29,30.25,30.22,10,10,7,10,2,,0.01,6,Rain,16
2013-8-18,71,68,66,72,70,66,100,100,100,30.27,30.24,30.21,10,7,0,10,3,,1.53,8,Fog-Rain,327
2013-8-19,78,71,64,77,72,64,100,97,89,30.22,30.16,30.11,10,8,1,8,3,,0.02,7,Rain,175
2013-8-20,91,80,69,81,76,70,100,90,66,30.21,30.17,30.12,10,6,0,9,1,,0.00,4,Fog,116
2013-8-21,91,81,71,82,77,72,100,89,66,30.24,30.18,30.12,10,7,0,9,2,,0.00,4,Fog-Rain-Thunderstorm,176
2013-8-22,93,83,73,81,77,73,100,87,52,30.13,30.07,30.00,10,9,3,6,2,,0.00,1,Rain,208
2013-8-23,78,72,66,77,74,66,100,100,89,30.15,30.05,29.97,10,7,0,13,2,18,1.21,4,Fog-Rain-Thunderstorm,326
2013-8-24,87,74,62,73,67,63,100,83,46,30.36,30.27,30.16,10,9,0,9,2,,0.00,1,Fog,345
2013-8-25,86,74,62,73,68,63,100,85,55,30.44,30.37,30.31,10,9,0,6,1,,0.00,2,Fog,105
2013-8-26,91,78,64,75,70,64,100,82,52,30.34,30.21,30.07,10,10,10,10,1,,0.00,0,,178
2013-8-27,95,83,71,84,77,72,100,90,59,30.07,29.99,29.94,10,9,3,8,2,,0.00,2,Rain-Thunderstorm,206
2013-8-28,84,80,77,81,79,77,100,99,84,29.98,29.92,29.85,10,5,0,10,3,,0.23,6,Fog-Rain,183
2013-8-29,87,80,73,81,78,73,100,92,70,30.06,29.98,29.87,10,6,0,8,4,,0.00,6,Fog-Rain,346
2013-8-30,89,80,71,81,77,72,100,90,66,30.08,30.02,29.94,10,6,0,10,3,17,0.00,4,Fog,164
2013-8-31,95,84,73,82,78,73,100,91,63,29.96,29.90,29.84,10,9,3,10,5,20,0.00,1,Rain-Thunderstorm,174